Wind_Speed
34 34 33 32 33 35 33 32 30 29 26 25 25 26 24 22 22 22 24 25 26 28 28 28 28 28 27 26 26 27 28 30 28 28 29 31 33 33 35 36 35 34 32
34 37 36 35 34 34 33 33 34 32 31 29 29 28 28 25 24 26 26 26 26 28 29 29 31 29 28 28 28 30 32 34 32 29 30 30 30 33 33 35 35 36 33
38 37 37 38 37 35 34 36 36 35 33 33 32 30 31 31 30 28 30 30 29 30 31 30 32 32 31 32 32 32 33 32 32 31 29 31 32 33 34 36 35 37 36
42 41 38 35 37 39 38 38 38 38 38 37 36 36 36 36 34 33 33 33 34 35 36 36 35 35 36 33 33 33 34 34 35 34 31 32 33 36 34 33 34 38 38
42 43 41 39 39 38 40 41 42 43 42 43 42 40 40 41 39 38 38 39 38 38 37 37 37 37 37 38 36 35 36 35 34 34 34 33 32 36 37 35 34 34 33
44 45 44 45 45 43 41 40 42 41 41 41 40 40 41 40 41 41 41 40 40 40 38 38 39 39 38 37 35 34 35 35 35 34 34 36 36 37 35 32 34 35 32
46 49 50 46 49 48 47 46 44 43 44 41 40 39 38 38 38 39 38 38 38 38 38 39 38 40 41 37 35 34 34 34 35 35 33 38 39 40 37 37 40 36 31
47 44 51 51 53 53 52 51 50 49 47 46 45 43 42 41 38 39 39 39 39 38 38 39 40 40 40 38 35 31 30 32 37 34 39 33 33 34 34 34 30 30 26
56 56 53 52 54 53 53 52 52 52 50 49 46 44 44 42 40 40 40 40 37 35 39 43 42 37 38 37 34 32 31 30 36 40 35 33 33 33 32 31 34 33 28
66 65 54 54 53 52 52 55 50 56 54 52 48 46 45 42 41 41 42 41 38 37 39 40 39 34 36 41 37 34 38 35 35 35 34 34 31 31 31 31 29 26 31
55 61 57 63 58 53 51 51 50 47 48 48 48 48 50 44 40 41 45 37 44 40 47 51 40 34 36 32 39 42 39 31 29 30 31 25 26 28 27 19 21 21 25
50 53 53 52 51 67 56 55 43 56 53 51 53 52 49 43 41 43 38 37 37 23 33 32 34 15 24 21 19 24 25 26 29 31 23 21 22 23 22 22 17 22 24
38 39 50 50 58 68 63 56 49 54 44 42 53 50 51 45 43 42 48 45 34 18 9 13 10 10 19 19 16 22 24 29 31 28 23 20 19 18 18 18 15 13 19
45 43 34 42 57 47 65 60 42 60 58 53 52 41 43 48 21 11 16 9 15 19 8 15 18 15 20 22 23 27 27 29 29 26 22 23 23 19 17 18 16 16 18
36 49 46 43 51 47 34 29 42 52 46 43 37 27 14 14 16 17 14 8 8 12 12 13 15 15 20 27 30 32 31 28 28 27 25 25 26 27 25 21 21 21 22
30 28 39 46 47 43 27 23 28 17 19 19 17 17 12 11 14 18 22 22 21 21 21 20 21 20 25 31 34 37 37 36 37 36 31 30 31 33 33 31 29 28 29
35 31 32 28 29 41 29 42 52 38 37 19 25 30 27 26 24 25 31 33 34 36 39 38 36 34 33 32 37 39 39 40 44 43 42 44 46 43 43 42 42 39 38
33 31 28 30 30 24 20 22 29 26 23 25 32 34 33 33 35 36 39 39 38 38 37 37 36 37 38 40 43 47 49 52 51 48 49 49 50 48 48 48 49 49 49
30 33 34 29 27 25 22 17 17 21 27 18 28 36 38 40 40 42 42 40 40 42 43 44 44 47 49 50 51 53 54 55 56 56 55 55 55 54 52 54 54 55 54
22 23 22 20 20 20 20 20 20 22 28 32 32 35 33 34 34 35 34 35 38 42 40 39 43 45 51 49 53 57 59 61 60 60 59 59 60 60 60 59 60 60 59
22 26 26 25 25 26 26 26 25 26 26 27 30 31 31 31 33 36 38 36 41 41 42 44 46 46 51 53 54 54 55 55 56 57 57 56 57 58 60 61 63 65 65
23 22 21 23 24 24 25 27 28 29 30 30 30 31 32 35 36 36 37 38 40 41 42 43 44 46 48 49 50 51 51 52 54 55 57 57 57 61 62 64 66 66 69
25 26 27 27 28 29 31 32 33 34 34 34 35 36 37 39 40 41 42 42 43 45 47 49 51 53 53 54 55 57 57 58 59 60 61 62 64 66 69 69 70 70 71
29 31 33 35 37 37 38 38 40 41 42 43 43 43 44 45 47 48 48 50 50 49 48 49 51 52 53 55 57 58 59 60 61 62 63 63 65 66 66 68 69 68 68
36 36 37 39 41 42 42 43 44 45 46 47 47 48 48 48 49 50 51 51 52 53 54 55 55 55 55 56 57 58 59 60 61 61 62 62 62 62 64 67 70 71 73
37 39 41 43 44 45 47 49 50 51 52 51 53 55 54 54 55 55 55 54 53 52 53 55 56 57 57 58 59 60 60 61 62 61 61 61 62 63 64 63 63 65 65
Wind_Direction
230 230 230 228 223 224 226 228 232 239 242 244 247 254 255 259 258 254 251 252 254 252 253 256 258 259 262 267 272 274 277 282 287 288 292 294 298 305 309 312 315 320 325
227 233 234 232 230 229 231 232 235 240 244 243 244 250 258 257 259 258 255 254 254 257 257 258 260 262 266 269 274 280 282 284 287 288 290 293 295 298 302 305 308 311 317
230 228 233 236 235 233 233 236 236 238 239 241 244 247 251 255 257 257 259 256 255 257 259 261 262 264 266 270 274 276 279 282 287 294 293 292 292 293 295 299 303 306 311
232 232 231 234 238 237 235 236 240 241 242 242 245 250 254 254 255 258 259 259 259 261 262 262 264 267 270 272 273 275 278 284 290 294 295 293 293 291 294 297 302 306 309
233 233 230 231 236 236 239 240 241 244 247 250 251 252 254 256 256 255 256 258 260 261 265 268 270 272 273 274 274 278 283 287 290 292 293 294 296 294 296 299 297 296 303
242 234 225 230 235 236 236 238 240 243 246 249 250 251 253 257 260 260 259 259 261 264 267 268 268 270 273 276 280 283 286 287 287 288 292 295 292 289 290 298 305 299 298
235 240 237 228 235 237 239 239 241 245 247 249 250 251 255 259 262 267 273 273 271 270 269 269 270 271 271 273 275 281 284 284 285 289 295 295 293 293 293 298 305 302 300
224 229 239 235 235 238 241 241 242 245 247 249 252 257 260 261 264 269 272 273 274 275 272 266 263 264 269 272 274 275 277 283 288 290 293 297 292 290 290 288 295 302 295
252 238 235 238 237 239 242 244 247 248 249 253 255 256 260 261 262 266 270 272 273 275 275 270 267 266 268 269 268 267 270 277 282 289 291 293 294 289 289 289 288 289 289
249 250 226 240 244 242 240 246 247 248 253 256 255 257 259 262 264 269 268 270 271 270 270 270 270 270 279 273 268 269 270 271 274 284 288 291 298 302 296 292 287 283 284
252 256 254 250 244 244 238 237 235 244 249 252 253 251 251 250 252 258 262 269 269 269 273 269 258 259 270 275 257 265 267 265 271 283 289 293 296 298 303 301 286 287 287
255 250 250 243 243 241 254 240 239 243 247 246 248 247 249 245 246 257 256 273 272 284 284 249 259 249 248 266 251 255 252 259 273 274 289 298 297 305 311 307 279 283 290
254 251 240 244 235 239 245 240 230 240 244 251 250 248 243 250 253 262 272 266 264 268 296 273 211 246 250 246 240 248 259 271 276 275 285 296 303 308 317 320 284 282 282
257 257 250 253 243 256 248 243 254 249 244 249 247 237 254 258 248 229 235 232 241 250 221 259 257 255 237 237 230 243 254 263 270 272 279 289 296 300 301 296 280 272 264
257 259 255 265 258 252 261 244 250 252 252 250 253 242 206 182 208 213 214 225 253 271 272 275 267 264 242 237 234 241 250 255 260 265 272 278 283 288 286 280 276 271 269
242 250 252 264 274 260 275 265 228 238 206 212 242 252 256 272 254 273 278 278 281 281 281 283 283 273 255 241 241 245 251 258 261 260 261 269 278 282 278 276 268 263 261
237 239 240 247 255 265 259 272 284 276 289 283 283 284 278 281 264 260 262 264 262 267 269 264 262 261 260 254 252 254 259 265 266 263 264 272 274 272 270 268 267 261 259
237 247 243 242 244 249 254 262 278 279 278 278 253 253 249 249 250 250 250 256 254 255 256 250 251 251 251 249 247 247 253 258 260 261 264 266 268 269 268 266 265 265 264
234 240 243 237 238 244 236 245 241 250 251 253 244 246 251 256 253 251 249 250 252 252 243 241 239 240 240 241 242 245 248 251 254 258 261 264 266 266 266 266 266 265 263
206 214 221 230 237 243 251 253 247 248 242 245 251 257 255 250 248 252 243 253 245 255 248 252 256 251 251 252 257 257 257 259 262 264 266 268 269 271 271 271 269 268 268
215 220 220 222 229 235 239 241 241 242 242 245 248 250 253 252 247 246 251 250 246 253 256 258 256 255 246 258 260 259 260 263 266 268 269 269 269 269 268 268 268 269 269
231 240 245 243 241 245 245 244 244 247 247 249 250 252 250 251 252 252 251 253 254 255 256 258 257 257 257 259 261 262 262 263 263 263 264 264 264 266 266 266 266 266 266
244 247 249 252 253 251 250 252 255 255 255 256 258 260 262 262 261 261 259 258 260 260 261 263 264 264 264 265 266 265 263 263 263 262 262 261 261 262 262 262 263 263 264
254 256 259 261 259 259 259 259 260 262 262 261 260 259 260 260 260 261 263 266 266 266 266 265 266 267 267 267 266 266 266 266 266 266 265 265 265 267 268 268 270 270 271
262 258 255 255 257 261 264 265 264 265 268 270 270 271 270 268 268 269 270 270 271 272 273 272 271 272 272 273 273 273 273 271 270 269 270 270 270 272 272 272 271 271 273
264 269 270 269 266 265 267 269 273 274 275 275 277 278 277 276 277 276 276 276 273 271 271 270 270 270 269 268 268 268 268 269 269 269 268 268 269 269 269 270 270 269 269
Height
5913 5914 5916 5918 5920 5922 5925 5928 5929 5930 5932 5934 5935 5936 5937 5938 5939 5940 5940 5941 5943 5944 5945 5946 5947 5946 5946 5946 5945 5944 5942 5940 5941 5942 5939 5937 5933 5929 5925 5920 5917 5915 5913
5905 5908 5911 5911 5914 5916 5919 5921 5923 5925 5927 5928 5929 5931 5932 5933 5934 5935 5936 5937 5938 5939 5940 5941 5941 5941 5942 5941 5940 5939 5938 5935 5934 5935 5933 5930 5927 5923 5920 5916 5912 5908 5906
5897 5900 5902 5905 5908 5910 5911 5913 5915 5917 5919 5921 5923 5924 5926 5928 5929 5930 5930 5931 5932 5932 5932 5934 5935 5935 5934 5934 5934 5933 5931 5930 5929 5929 5928 5924 5920 5916 5913 5910 5908 5904 5902
5887 5891 5894 5897 5900 5902 5903 5904 5906 5909 5910 5913 5916 5918 5919 5920 5923 5924 5925 5925 5925 5925 5925 5926 5926 5927 5927 5927 5926 5926 5924 5923 5922 5921 5920 5917 5914 5909 5909 5907 5904 5899 5898
5878 5881 5885 5889 5890 5892 5895 5897 5898 5899 5902 5905 5907 5909 5911 5912 5914 5916 5916 5917 5917 5917 5918 5919 5918 5919 5919 5919 5920 5919 5918 5916 5915 5912 5910 5909 5907 5902 5901 5901 5899 5896 5893
5869 5873 5875 5878 5880 5883 5885 5887 5887 5890 5892 5894 5898 5900 5901 5903 5905 5906 5907 5908 5909 5910 5911 5911 5912 5911 5910 5910 5911 5911 5910 5908 5906 5904 5902 5901 5899 5894 5891 5890 5889 5888 5889
5856 5860 5864 5868 5871 5874 5876 5877 5879 5881 5882 5885 5888 5891 5893 5894 5896 5897 5898 5899 5901 5903 5903 5902 5902 5901 5899 5900 5901 5902 5901 5899 5897 5897 5895 5892 5888 5885 5883 5882 5879 5877 5879
5843 5849 5851 5854 5860 5862 5865 5868 5869 5870 5872 5875 5878 5881 5883 5885 5887 5888 5889 5890 5891 5892 5893 5891 5889 5890 5890 5891 5893 5892 5891 5890 5888 5887 5886 5883 5880 5877 5874 5874 5872 5870 5871
5832 5838 5837 5842 5845 5849 5854 5858 5861 5862 5864 5866 5869 5870 5873 5876 5879 5879 5879 5879 5880 5880 5880 5881 5882 5883 5883 5881 5883 5883 5883 5881 5880 5879 5877 5875 5872 5868 5865 5863 5861 5863 5863
5821 5820 5824 5828 5836 5839 5843 5847 5848 5852 5854 5855 5859 5860 5864 5867 5870 5871 5870 5870 5871 5872 5871 5871 5874 5875 5875 5873 5872 5873 5874 5873 5873 5870 5867 5865 5863 5860 5857 5854 5853 5852 5853
5808 5812 5813 5817 5826 5828 5830 5837 5838 5838 5840 5844 5846 5847 5849 5852 5853 5854 5857 5859 5859 5862 5860 5860 5863 5865 5864 5858 5861 5862 5865 5866 5865 5863 5861 5856 5854 5853 5849 5846 5847 5844 5845
5800 5801 5805 5807 5816 5817 5823 5826 5811 5825 5828 5827 5829 5833 5836 5837 5838 5843 5847 5849 5850 5849 5845 5843 5851 5857 5855 5854 5853 5854 5857 5858 5857 5855 5852 5850 5846 5844 5842 5839 5838 5838 5837
5788 5789 5793 5796 5804 5806 5808 5798 5800 5811 5814 5816 5818 5817 5824 5826 5828 5831 5835 5838 5841 5844 5839 5839 5837 5844 5846 5846 5846 5850 5850 5850 5849 5847 5844 5842 5840 5837 5834 5832 5833 5833 5833
5777 5778 5780 5784 5788 5789 5791 5791 5794 5798 5800 5805 5808 5806 5810 5815 5816 5823 5826 5823 5828 5835 5827 5832 5832 5834 5837 5838 5838 5840 5840 5840 5841 5840 5836 5835 5834 5831 5829 5829 5828 5828 5827
5763 5767 5773 5775 5777 5782 5781 5781 5784 5786 5789 5789 5791 5795 5798 5802 5814 5816 5816 5816 5819 5823 5824 5824 5825 5825 5827 5829 5829 5829 5829 5828 5829 5829 5827 5826 5826 5825 5824 5822 5821 5820 5819
5752 5758 5763 5764 5767 5771 5770 5772 5773 5772 5774 5779 5783 5788 5792 5796 5802 5805 5809 5808 5809 5814 5816 5817 5818 5819 5819 5818 5819 5818 5818 5818 5819 5818 5817 5817 5817 5816 5815 5815 5814 5812 5811
5742 5747 5751 5752 5757 5761 5761 5760 5761 5767 5770 5771 5773 5777 5780 5785 5786 5791 5795 5798 5799 5802 5805 5806 5806 5806 5807 5806 5807 5805 5806 5807 5807 5806 5806 5805 5806 5805 5805 5803 5803 5803 5802
5734 5738 5739 5743 5748 5750 5752 5751 5752 5757 5757 5760 5766 5769 5769 5771 5774 5776 5779 5782 5786 5787 5787 5788 5789 5789 5790 5791 5791 5790 5791 5791 5791 5789 5790 5790 5791 5791 5790 5789 5789 5789 5789
5725 5730 5734 5735 5736 5739 5742 5743 5746 5747 5750 5749 5752 5756 5761 5763 5764 5764 5764 5766 5768 5770 5772 5774 5773 5774 5774 5775 5775 5775 5775 5775 5775 5775 5775 5775 5775 5774 5773 5774 5774 5774 5773
5720 5725 5728 5728 5729 5732 5733 5735 5737 5739 5742 5745 5746 5749 5749 5751 5752 5752 5755 5757 5758 5758 5759 5761 5761 5761 5762 5763 5764 5763 5763 5763 5762 5762 5761 5761 5761 5762 5761 5761 5760 5759 5758
5713 5718 5720 5720 5722 5725 5725 5726 5727 5729 5731 5733 5735 5736 5738 5738 5739 5742 5743 5743 5745 5746 5746 5747 5747 5746 5747 5747 5746 5746 5746 5746 5745 5745 5745 5744 5744 5743 5743 5743 5743 5743 5741
5706 5708 5709 5711 5713 5715 5716 5718 5719 5719 5719 5720 5721 5723 5724 5725 5726 5726 5727 5728 5728 5729 5729 5730 5730 5729 5728 5729 5728 5728 5727 5727 5726 5726 5727 5726 5725 5724 5723 5722 5721 5720 5721
5699 5699 5700 5701 5703 5704 5706 5707 5708 5709 5709 5708 5708 5709 5709 5710 5710 5711 5711 5711 5712 5711 5712 5711 5710 5709 5709 5708 5708 5707 5706 5706 5705 5705 5704 5703 5703 5702 5701 5700 5698 5696 5695
5692 5692 5692 5693 5693 5692 5691 5692 5693 5694 5694 5695 5694 5694 5693 5693 5693 5694 5694 5694 5693 5692 5691 5691 5690 5689 5688 5687 5687 5686 5686 5686 5684 5683 5682 5682 5682 5681 5679 5678 5677 5677 5676
5683 5683 5682 5683 5683 5682 5680 5678 5678 5678 5678 5677 5676 5678 5678 5678 5677 5676 5675 5674 5674 5674 5674 5673 5670 5669 5668 5668 5667 5666 5665 5663 5663 5662 5662 5661 5661 5661 5661 5659 5657 5657 5657
5671 5671 5671 5670 5669 5667 5667 5666 5664 5662 5660 5659 5659 5660 5658 5657 5657 5656 5656 5655 5654 5653 5652 5651 5651 5650 5649 5648 5645 5643 5643 5641 5640 5640 5639 5639 5638 5638 5638 5635 5632 5634 5635